Theta_e
310 307 306 307 307 309 310 307 308 309 308 307 308 306 306 309 309 308 309 309 310 310 310 310 311 311 310 309 310 311 312 313 312 310 307 304 302 301 301 302 304 304 304 306
306 307 307 308 310 309 308 307 308 308 308 307 306 305 305 307 309 310 310 310 310 310 310 311 311 311 312 311 311 312 313 311 308 304 303 301 300 304 311 311 310 310 308 307
305 306 306 309 308 309 306 307 308 309 310 308 306 305 309 309 308 310 311 311 311 311 311 311 311 312 312 311 312 313 312 307 304 302 300 301 307 312 311 310 309 309 309 308
305 307 309 307 307 307 306 307 309 309 305 303 306 305 305 308 308 309 310 311 311 311 311 312 312 312 312 312 313 313 308 305 303 300 301 310 312 310 310 309 308 309 309 309
305 307 307 307 307 307 307 307 308 307 300 298 307 302 306 310 311 308 308 310 311 310 311 311 311 312 312 313 313 309 307 304 301 300 309 312 310 309 309 309 309 308 308 309
306 307 306 307 307 306 306 307 308 306 298 300 305 306 308 310 310 309 308 310 311 311 311 312 312 311 313 311 310 309 308 304 300 304 311 310 309 309 309 309 308 309 309 309
304 306 306 307 308 308 308 309 303 305 304 304 298 300 309 309 308 310 307 309 310 311 311 311 311 313 311 311 311 310 308 304 300 310 311 309 309 309 310 309 310 312 311 309
299 300 307 307 306 308 308 306 310 311 309 309 304 306 307 307 309 310 310 311 311 311 311 310 312 312 312 311 311 310 307 303 299 311 310 310 310 310 310 310 310 310 310 311
307 307 307 308 307 306 306 304 307 303 303 304 302 305 307 308 308 308 309 309 310 310 312 312 311 311 311 311 311 310 306 302 300 311 311 310 311 311 311 311 310 311 311 311
307 305 307 308 308 308 307 307 303 301 300 308 306 304 306 305 307 308 308 309 309 310 312 310 309 309 310 310 310 307 305 302 299 310 312 312 312 312 312 312 311 311 311 311
306 304 305 307 307 305 304 305 308 306 305 304 305 303 305 302 307 310 309 309 309 311 310 310 310 309 309 308 307 306 305 302 300 303 311 312 311 311 311 311 311 312 311 310
306 304 301 305 307 307 306 307 305 300 305 300 300 304 306 307 308 310 310 311 311 311 311 311 310 310 309 308 307 307 306 304 300 299 305 310 310 310 310 306 305 310 312 311
307 305 302 306 306 307 308 307 307 306 303 306 303 304 307 307 308 309 309 310 310 310 310 310 310 310 309 309 307 307 307 307 304 300 299 306 309 309 306 302 304 307 309 309
307 308 306 306 308 307 307 308 307 305 301 304 303 304 306 306 306 307 308 309 309 310 310 310 310 310 309 308 308 308 307 307 306 302 299 299 303 304 303 302 301 302 305 305
306 307 309 308 308 308 307 308 307 304 307 306 306 306 306 305 306 307 309 309 309 309 309 309 309 308 308 308 308 308 307 307 307 305 300 299 299 300 300 300 300 300 301 302
306 306 308 306 307 306 307 307 307 308 308 307 307 308 307 308 308 308 308 307 308 308 308 308 308 307 307 306 305 307 307 306 306 306 302 299 299 299 299 300 300 299 300 300
306 306 305 305 306 304 303 304 306 306 306 308 308 308 306 305 306 306 307 306 307 307 307 307 307 305 304 304 304 305 306 306 306 306 303 300 299 299 299 299 299 299 299 299
306 306 305 305 303 306 303 303 305 305 304 304 305 306 305 306 306 306 307 306 306 306 306 305 305 305 304 304 303 303 303 305 305 305 304 301 300 300 299 299 299 299 298 298
302 304 304 305 304 303 306 305 305 304 305 303 303 303 305 305 305 304 305 306 304 304 304 305 305 305 304 304 303 304 303 303 303 304 303 302 301 300 300 300 299 299 299 298
302 301 303 304 306 306 304 305 305 303 303 304 304 303 303 303 301 300 305 304 302 303 302 303 302 303 303 304 303 302 303 303 303 303 303 302 302 301 301 301 300 300 300 299
302 302 303 303 304 303 302 305 305 304 303 304 305 304 304 301 303 303 302 302 302 302 302 302 302 301 302 303 303 302 302 303 303 302 302 303 302 303 303 302 302 301 301 300
301 301 301 302 303 303 304 304 304 303 305 305 305 304 304 303 302 302 302 301 301 301 301 301 301 301 301 302 302 302 302 302 302 301 300 300 300 300 301 302 303 302 302 301
302 302 302 302 304 303 305 305 305 303 303 302 302 302 301 302 302 301 301 300 300 300 300 300 300 300 301 301 301 301 301 300 300 300 300 300 300 300 300 301 301 302 302 302
302 303 301 303 303 303 304 303 302 302 302 302 302 301 301 300 300 300 299 299 298 298 298 299 299 300 300 300 300 300 300 300 299 299 299 299 299 299 299 299 299 299 299 301
300 301 300 300 301 302 302 302 302 301 301 300 300 300 299 298 298 297 298 298 298 298 298 298 299 299 299 299 300 299 299 299 299 300 299 298 298 298 298 298 298 298 299 300
300 298 299 301 301 300 301 301 300 301 300 299 298 298 299 298 298 297 297 297 297 297 297 297 298 298 298 299 299 299 299 299 300 301 301 300 299 298 298 298 299 299 299 300
Wind_Speed
10 11 5 2 2 2 3 6 8 1 2 1 3 7 10 12 17 16 17 18 18 16 14 18 17 15 15 12 13 13 15 14 16 18 20 21 22 22 22 22 22 22 21 20
8 6 5 7 7 8 8 7 4 2 1 3 6 10 10 14 13 26 23 21 21 18 17 17 13 13 13 12 13 14 14 15 17 19 21 22 24 24 24 24 24 22 20 18
7 1 9 5 9 9 7 6 3 2 4 3 5 7 6 6 16 21 21 24 21 15 15 12 9 9 12 15 15 13 15 17 18 20 21 22 22 21 20 17 14 10 10 10
7 11 7 8 6 4 5 5 3 4 4 1 4 4 6 5 8 3 11 11 12 10 8 10 8 8 13 16 16 15 16 16 18 20 21 23 21 17 15 13 10 8 6 5
3 6 7 9 4 3 3 3 5 3 5 4 4 4 8 5 6 5 8 9 6 7 10 10 10 11 14 16 15 14 15 17 18 20 21 20 15 13 11 11 12 10 6 5
4 5 4 2 3 5 3 3 5 4 3 3 2 4 6 3 2 2 4 7 7 6 8 7 8 12 12 12 14 16 17 17 19 19 17 14 13 12 11 11 9 11 11 9
6 5 2 3 4 5 4 4 3 5 3 5 2 2 10 5 7 3 7 7 7 7 9 9 10 11 12 14 17 18 18 17 18 17 13 12 12 11 9 9 11 14 14 10
4 4 3 5 3 3 2 4 4 5 2 4 2 5 5 5 3 7 6 8 9 9 9 10 9 10 13 15 19 19 18 17 16 15 11 10 10 11 10 9 12 14 14 12
4 2 1 4 3 3 3 1 3 5 3 3 3 7 7 2 1 2 5 7 10 9 6 6 7 10 14 18 19 20 17 16 14 12 10 8 9 10 11 11 13 15 15 13
2 4 1 1 1 1 2 2 3 3 2 4 5 5 5 4 4 6 7 10 9 8 8 7 7 11 15 18 19 17 15 14 13 11 10 9 10 11 13 13 14 14 13 12
2 4 4 3 5 6 1 2 1 2 4 4 2 6 6 5 4 3 9 7 10 10 12 13 15 16 19 17 16 15 14 13 12 11 11 10 11 12 13 13 14 15 13 12
1 5 3 6 2 4 4 5 5 4 4 2 4 6 4 5 6 3 5 9 10 12 16 20 23 21 24 20 15 14 14 13 13 12 12 11 12 12 13 14 13 12 12 12
0 0 2 6 4 3 3 5 4 3 3 5 5 6 3 2 3 9 12 16 16 17 20 21 22 23 26 18 16 15 16 15 14 14 13 12 11 12 12 13 12 12 11 11
2 1 5 5 4 4 3 5 6 5 3 4 7 8 4 7 8 20 32 21 22 22 21 22 23 23 20 17 19 20 19 18 16 16 15 13 13 13 13 13 14 14 14 13
2 2 2 5 7 5 7 6 9 10 12 7 2 8 5 8 12 23 27 18 12 14 14 15 18 19 20 21 23 23 22 20 18 18 17 14 14 14 14 14 15 15 15 14
1 3 3 5 8 7 8 10 12 16 16 18 16 23 19 27 18 18 26 28 22 20 20 20 19 18 18 19 20 21 21 20 19 20 17 16 16 15 15 15 16 16 15 15
5 2 2 5 4 7 6 8 13 8 6 14 13 19 13 10 16 23 28 23 18 17 16 14 14 16 18 18 18 17 17 17 20 19 18 18 18 17 17 17 18 17 16 17
3 3 2 4 5 2 5 5 4 7 7 10 11 12 13 19 21 19 13 10 13 13 13 13 16 18 19 20 20 19 16 17 19 20 19 19 19 19 19 19 19 19 18 18
4 2 1 1 2 7 0 1 3 4 3 0 4 5 4 10 15 13 5 10 21 22 25 25 25 26 27 26 23 22 21 20 20 20 19 19 20 21 21 21 20 20 21 20
2 4 2 1 2 4 3 2 3 4 3 1 8 7 7 12 5 5 16 24 30 31 28 24 24 27 28 26 24 24 25 23 24 21 20 20 21 22 22 22 22 22 23 22
3 1 4 3 3 7 6 4 3 1 4 1 2 9 10 3 10 21 29 35 34 34 28 28 28 29 28 26 27 27 25 26 23 21 21 22 23 25 24 25 25 24 25 25
6 6 4 3 3 6 6 5 2 3 7 11 15 21 17 17 24 36 36 35 36 36 34 31 32 32 26 23 26 25 25 19 19 20 23 26 27 27 27 27 27 27 27 27
2 6 5 8 6 6 12 6 9 12 11 14 16 16 22 33 36 33 36 40 39 37 35 32 31 30 24 24 25 24 21 22 24 26 28 28 27 27 27 27 27 27 27 28
3 8 4 1 3 9 17 17 2 11 20 23 23 24 26 30 34 39 39 39 38 36 34 30 29 28 28 24 21 20 23 25 28 30 29 28 28 26 25 26 26 26 26 26
4 3 3 6 11 14 1 11 17 23 16 15 19 25 27 26 30 30 33 34 34 33 31 27 27 28 29 24 22 21 25 27 27 26 25 26 26 25 24 24 26 26 26 24
10 7 4 6 4 6 19 21 18 21 24 26 22 22 20 22 25 27 30 31 31 32 31 28 27 27 25 23 27 28 29 25 23 21 19 18 18 18 18 18 19 18 20 20
Wind_Direction
36 66 80 24 25 172 167 84 110 131 336 17 266 270 271 258 228 235 235 234 235 238 246 245 259 278 292 292 297 300 305 308 310 309 309 309 310 308 305 300 294 289 283 280
40 56 327 321 21 68 47 99 56 114 346 61 343 291 263 254 225 229 234 238 241 238 249 229 248 278 292 301 304 302 304 307 310 310 312 313 313 312 311 308 301 293 286 285
92 263 323 71 36 59 37 74 46 94 333 35 339 302 300 275 240 240 241 250 248 228 223 225 249 279 295 305 303 302 307 311 313 313 313 313 310 308 307 314 322 310 296 288
57 4 55 53 64 38 84 332 71 53 66 215 36 275 301 303 308 277 211 201 203 219 199 193 205 256 290 299 299 304 306 310 313 314 317 317 317 324 323 329 349 3 352 332
262 23 34 51 343 24 160 64 72 72 77 64 354 71 271 321 303 317 240 222 225 219 218 237 245 268 292 297 295 301 309 314 315 319 319 318 326 331 339 338 350 353 14 15
95 61 53 90 22 56 141 75 43 61 87 31 282 129 285 249 273 340 25 202 202 188 200 205 251 278 292 292 301 311 314 314 316 320 324 326 327 327 337 349 352 1 360 348
3 9 25 50 52 15 62 67 4 359 10 221 304 44 244 284 285 232 166 161 176 191 207 249 269 272 282 295 304 308 308 313 318 325 321 325 329 333 339 339 336 345 350 337
119 335 348 342 139 180 86 135 156 208 215 259 13 239 252 226 96 132 150 174 187 210 241 261 274 285 284 290 298 303 307 312 318 324 314 321 331 332 323 331 339 340 331 327
123 6 329 41 10 93 261 48 182 107 40 52 242 284 313 114 345 266 245 226 231 243 243 261 271 278 283 286 293 300 301 306 315 318 311 315 323 314 313 320 325 317 305 313
157 84 279 216 351 339 114 214 61 360 128 271 285 273 233 292 294 304 263 232 239 246 228 247 310 325 292 287 290 291 295 302 309 309 303 306 302 306 306 310 309 301 303 316
98 102 276 81 200 184 39 354 189 137 153 184 292 270 216 216 232 337 352 266 253 243 243 268 293 312 328 296 288 292 296 299 303 302 298 299 298 300 301 306 304 298 306 308
357 124 163 208 200 149 179 208 159 128 245 211 149 273 262 210 172 134 319 272 250 251 260 275 286 292 310 299 287 291 297 299 299 296 294 293 298 304 311 314 307 309 308 308
168 292 54 343 350 352 224 215 207 121 84 218 142 260 258 245 224 325 314 306 288 276 284 286 283 287 302 285 281 288 294 296 292 290 288 287 293 297 304 311 321 319 318 321
50 256 172 189 198 141 213 221 209 162 150 206 227 267 285 295 303 315 312 314 295 281 289 285 277 286 295 280 285 287 289 287 284 282 281 282 285 290 298 306 314 316 318 325
95 249 251 262 256 231 216 207 201 201 220 207 222 253 254 269 290 294 301 303 303 294 297 302 301 295 292 292 291 288 286 282 277 275 276 281 283 287 292 298 302 307 313 318
184 273 322 281 263 252 253 238 216 222 226 241 258 276 278 281 299 300 303 306 293 296 304 307 308 304 300 301 295 285 281 277 270 269 273 277 279 284 287 290 295 296 301 305
162 179 37 266 315 324 298 227 220 214 213 217 234 249 278 292 298 301 310 312 311 315 318 321 319 318 317 317 315 307 288 271 265 269 271 272 276 281 285 288 290 291 295 298
171 159 170 270 348 256 236 272 196 201 244 226 256 263 269 276 298 317 346 350 349 337 329 323 320 319 322 322 316 309 301 287 276 271 271 273 277 281 283 284 287 289 290 292
62 120 265 240 253 288 250 211 171 179 238 326 217 270 305 340 315 307 326 350 334 321 312 309 308 309 308 307 312 300 295 291 284 279 278 280 281 281 281 283 286 287 288 289
51 93 134 326 244 240 248 192 162 120 296 118 81 39 350 334 323 265 320 312 316 317 314 304 310 308 306 308 306 297 288 288 285 286 286 282 279 279 281 283 283 283 284 286
177 227 190 229 275 284 257 196 142 53 243 182 328 322 303 254 264 303 310 308 310 312 311 304 305 308 298 301 302 296 293 285 293 288 283 281 282 282 281 280 279 280 281 282
171 157 196 172 226 284 184 118 179 213 309 285 293 312 311 311 310 312 312 308 313 312 310 309 307 307 302 297 297 294 291 302 295 286 282 282 283 282 279 276 276 277 278 278
219 187 182 195 214 262 196 309 310 332 350 351 343 336 317 314 315 316 313 314 313 312 310 310 308 308 304 300 298 289 295 299 295 290 287 286 285 281 278 277 277 276 276 277
237 198 219 6 277 247 281 323 66 352 332 325 320 315 315 317 316 314 313 312 311 312 310 309 306 304 303 302 295 289 301 299 294 292 290 288 288 287 280 278 279 280 278 278
209 147 225 266 287 305 229 356 330 337 346 334 322 317 319 325 320 322 318 321 321 319 318 311 304 301 301 301 292 289 305 302 295 294 291 286 285 287 283 276 278 281 281 280
204 199 172 247 318 308 304 327 337 326 329 329 331 334 335 341 338 337 330 330 327 323 321 315 308 299 299 293 291 293 298 294 293 293 293 291 289 288 285 282 280 277 283 284